Time,TemperatureF,DewpointF,PressureIn,WindDirection,WindDirectionDegrees,WindSpeedMPH,WindSpeedGustMPH,Humidity,HourlyPrecipIn,Conditions,Clouds,dailyrainin,SoftwareType,DateUTC
2013-01-29 05:32:00,69.8,64.8,29.15,SE,145,15.0,15.0,84,0.00,,---,0.00,VWS V13.01,2013-01-29 11:32:00,
2013-01-29 05:37:00,69.8,64.8,29.15,SE,135,10.5,10.5,84,0.00,,---,0.00,VWS V13.01,2013-01-29 11:37:00,
2013-01-29 05:42:00,69.8,64.8,29.15,SE,126,8.7,8.7,84,0.00,,---,0.00,VWS V13.01,2013-01-29 11:42:00,
2013-01-29 05:47:00,69.8,64.8,29.15,SE,141,11.0,12.8,84,0.00,,---,0.00,VWS V13.01,2013-01-29 11:47:00,
2013-01-29 05:52:00,70.0,64.9,29.15,SSE,148,8.3,10.5,84,0.00,,---,0.00,VWS V13.01,2013-01-29 11:52:00,
2013-01-29 05:57:00,70.0,64.6,29.15,SSE,164,13.6,14.5,83,0.00,,---,0.00,VWS V13.01,2013-01-29 11:57:00,
2013-01-29 06:02:00,70.0,64.6,29.15,SSE,153,4.0,11.0,83,0.00,,---,0.00,VWS V13.01,2013-01-29 12:02:00,
2013-01-29 06:07:00,70.0,64.6,29.15,SSE,164,12.3,12.8,83,0.00,,---,0.00,VWS V13.01,2013-01-29 12:07:00,
2013-01-29 06:12:00,70.2,64.8,29.15,SE,143,5.4,12.3,83,0.00,,---,0.00,VWS V13.01,2013-01-29 12:12:00,
2013-01-29 06:17:00,70.2,64.4,29.15,SSE,168,12.3,12.3,82,0.00,,---,0.00,VWS V13.01,2013-01-29 12:17:00,
2013-01-29 06:22:00,70.2,64.4,29.15,SE,127,9.6,12.3,82,0.00,,---,0.00,VWS V13.01,2013-01-29 12:22:00,
2013-01-29 06:27:00,70.3,64.2,29.15,SE,125,7.6,10.5,81,0.00,,---,0.00,VWS V13.01,2013-01-29 12:27:00,
2013-01-29 06:32:00,70.3,64.2,29.15,SSE,166,8.3,14.5,81,0.00,,---,0.00,VWS V13.01,2013-01-29 12:32:00,
2013-01-29 06:37:00,70.5,64.4,29.15,SSE,151,11.9,15.0,81,0.00,,---,0.00,VWS V13.01,2013-01-29 12:37:00,
2013-01-29 06:42:00,70.5,64.4,29.15,ESE,113,11.9,16.3,81,0.00,,---,0.00,VWS V13.01,2013-01-29 12:42:00,
2013-01-29 06:47:00,70.5,64.4,29.15,SSE,166,8.3,8.7,81,0.00,,---,0.00,VWS V13.01,2013-01-29 12:47:00,
2013-01-29 06:52:00,70.5,64.4,29.15,SSE,156,12.8,12.8,81,0.00,,---,0.00,VWS V13.01,2013-01-29 12:52:00,
2013-01-29 06:57:00,70.7,64.2,29.15,SSE,156,7.2,8.7,80,0.00,,---,0.00,VWS V13.01,2013-01-29 12:57:00,
2013-01-29 07:02:00,70.7,64.2,29.15,South,173,12.8,12.8,80,0.00,,---,0.00,VWS V13.01,2013-01-29 13:02:00,
2013-01-29 07:07:00,70.7,64.2,29.15,SE,128,8.1,11.0,80,0.00,,---,0.00,VWS V13.01,2013-01-29 13:07:00,
2013-01-29 07:12:00,70.9,64.4,29.15,SSE,150,12.8,17.9,80,0.00,,---,0.00,VWS V13.01,2013-01-29 13:12:00,
2013-01-29 07:17:00,71.1,64.2,29.15,South,173,6.3,10.1,79,0.00,,---,0.00,VWS V13.01,2013-01-29 13:17:00,
2013-01-29 07:22:00,71.1,64.2,29.12,SSE,162,8.7,17.4,79,0.00,,---,0.00,VWS V13.01,2013-01-29 13:22:00,
2013-01-29 07:27:00,71.1,64.2,29.12,South,174,12.8,14.1,79,0.00,,---,0.00,VWS V13.01,2013-01-29 13:27:00,
2013-01-29 07:32:00,71.1,64.2,29.12,SSE,159,14.5,15.4,79,0.00,,---,0.00,VWS V13.01,2013-01-29 13:32:00,
2013-01-29 07:37:00,71.1,64.2,29.12,South,173,15.4,15.4,79,0.00,,---,0.00,VWS V13.01,2013-01-29 13:37:00,
2013-01-29 07:42:00,71.2,64.0,29.12,SSE,158,8.3,10.1,78,0.00,,---,0.00,VWS V13.01,2013-01-29 13:42:00,
2013-01-29 07:47:00,71.2,64.0,29.12,South,169,7.6,17.4,78,0.00,,---,0.00,VWS V13.01,2013-01-29 13:47:00,
2013-01-29 07:52:00,71.2,64.0,29.12,South,183,10.5,13.6,78,0.00,,---,0.00,VWS V13.01,2013-01-29 13:52:00,
2013-01-29 07:57:00,71.4,64.2,29.12,SSE,153,11.0,11.0,78,0.00,,---,0.00,VWS V13.01,2013-01-29 13:57:00,
2013-01-29 08:02:00,71.4,64.2,29.12,ESE,102,5.8,10.1,78,0.00,,---,0.00,VWS V13.01,2013-01-29 14:02:00,
2013-01-29 08:07:00,71.4,64.2,29.12,SE,134,8.7,15.0,78,0.00,,---,0.00,VWS V13.01,2013-01-29 14:07:00,
2013-01-29 08:12:00,71.4,63.8,29.12,SE,129,8.7,15.9,77,0.00,,---,0.00,VWS V13.01,2013-01-29 14:12:00,
2013-01-29 08:17:00,71.4,63.8,29.12,SSE,165,12.8,17.0,77,0.00,,---,0.00,VWS V13.01,2013-01-29 14:17:00,
2013-01-29 08:22:00,71.6,63.6,29.12,South,175,12.8,12.8,76,0.00,,---,0.00,VWS V13.01,2013-01-29 14:22:00,
2013-01-29 08:27:00,71.6,63.6,29.12,SSE,162,13.2,15.0,76,0.00,,---,0.00,VWS V13.01,2013-01-29 14:27:00,
2013-01-29 08:32:00,71.6,63.6,29.12,SSE,164,15.4,15.4,76,0.00,,---,0.00,VWS V13.01,2013-01-29 14:32:00,
2013-01-29 08:37:00,71.6,63.6,29.12,SE,128,11.9,20.1,76,0.00,,---,0.00,VWS V13.01,2013-01-29 14:37:00,
2013-01-29 08:42:00,71.6,63.6,29.12,SW,223,18.3,18.3,76,0.00,,---,0.00,VWS V13.01,2013-01-29 14:42:00,
2013-01-29 08:47:00,71.6,63.6,29.12,SSE,165,8.7,13.2,76,0.00,,---,0.00,VWS V13.01,2013-01-29 14:47:00,
2013-01-29 08:52:00,71.6,63.3,29.12,South,170,17.4,17.4,75,0.00,,---,0.00,VWS V13.01,2013-01-29 14:52:00,
2013-01-29 08:57:00,71.8,63.4,29.12,SSE,153,11.0,11.0,75,0.00,,---,0.00,VWS V13.01,2013-01-29 14:57:00,
2013-01-29 09:02:00,71.8,63.4,29.12,SSW,198,11.4,18.3,75,0.00,,---,0.00,VWS V13.01,2013-01-29 15:02:00,
2013-01-29 09:07:00,71.8,63.1,29.09,SSE,157,17.4,17.4,74,0.00,,---,0.00,VWS V13.01,2013-01-29 15:07:00,
2013-01-29 09:12:00,71.8,63.1,29.09,SE,127,10.1,10.1,74,0.00,,---,0.00,VWS V13.01,2013-01-29 15:12:00,
2013-01-29 09:17:00,71.8,63.1,29.09,SSE,164,15.4,15.4,74,0.00,,---,0.00,VWS V13.01,2013-01-29 15:17:00,
2013-01-29 09:22:00,71.8,63.1,29.09,SSE,166,18.3,18.3,74,0.00,,---,0.00,VWS V13.01,2013-01-29 15:22:00,
2013-01-29 09:27:00,71.8,63.1,29.09,SSE,147,7.6,11.0,74,0.00,,---,0.00,VWS V13.01,2013-01-29 15:27:00,
2013-01-29 09:32:00,71.8,63.1,29.09,SE,144,12.8,12.8,74,0.00,,---,0.00,VWS V13.01,2013-01-29 15:32:00,
2013-01-29 09:37:00,71.8,63.1,29.09,SE,144,12.8,12.8,74,0.00,,---,0.00,VWS V13.01,2013-01-29 15:37:00,
2013-01-29 09:42:00,71.8,63.1,29.09,SE,145,8.1,8.1,74,0.00,,---,0.00,VWS V13.01,2013-01-29 15:42:00,
2013-01-29 09:47:00,71.8,63.1,29.09,South,173,14.5,14.5,74,0.00,,---,0.00,VWS V13.01,2013-01-29 15:47:00,
2013-01-29 09:52:00,71.8,63.1,29.09,South,177,8.3,8.3,74,0.00,,---,0.00,VWS V13.01,2013-01-29 15:52:00,
2013-01-29 09:57:00,71.8,63.1,29.09,South,177,8.3,8.3,74,0.00,,---,0.00,VWS V13.01,2013-01-29 15:57:00,
2013-01-29 10:02:00,71.8,63.1,29.09,SE,144,9.2,9.2,74,0.00,,---,0.00,VWS V13.01,2013-01-29 16:02:00,
2013-01-29 10:07:00,71.8,63.1,29.09,SE,144,9.2,9.2,74,0.00,,---,0.00,VWS V13.01,2013-01-29 16:07:00,
2013-01-29 10:12:00,71.8,63.1,29.09,SE,124,8.3,8.3,74,0.00,,---,0.00,VWS V13.01,2013-01-29 16:12:00,
2013-01-29 10:17:00,71.8,63.1,29.09,SE,124,8.3,8.3,74,0.00,,---,0.00,VWS V13.01,2013-01-29 16:17:00,
2013-01-29 10:22:00,71.8,63.1,29.09,SSE,156,17.4,17.4,74,0.00,,---,0.00,VWS V13.01,2013-01-29 16:22:00,
2013-01-29 10:27:00,71.8,63.1,29.09,South,186,15.0,15.0,74,0.00,,---,0.00,VWS V13.01,2013-01-29 16:27:00,
2013-01-29 10:32:00,71.8,63.1,29.09,South,172,8.7,8.7,74,0.00,,---,0.00,VWS V13.01,2013-01-29 16:32:00,
2013-01-29 10:37:00,71.8,63.1,29.09,ESE,110,5.4,5.4,74,0.00,,---,0.00,VWS V13.01,2013-01-29 16:37:00,
2013-01-29 10:42:00,71.8,63.1,29.09,SSW,193,12.8,12.8,74,0.00,,---,0.00,VWS V13.01,2013-01-29 16:42:00,
2013-01-29 10:47:00,70.7,64.6,29.09,SSE,163,10.1,10.1,81,0.00,,---,0.00,VWS V13.01,2013-01-29 16:47:00,
2013-01-29 10:52:00,70.7,64.6,29.09,South,190,15.0,15.0,81,0.00,,---,0.00,VWS V13.01,2013-01-29 16:52:00,
2013-01-29 10:57:00,70.7,64.9,29.09,South,190,15.0,15.0,82,0.00,,---,0.00,VWS V13.01,2013-01-29 16:57:00,
2013-01-29 11:02:00,70.7,64.9,29.06,SSE,166,10.5,10.5,82,0.00,,---,0.00,VWS V13.01,2013-01-29 17:02:00,
2013-01-29 11:07:00,70.7,64.9,29.06,SSW,197,8.1,8.1,82,0.00,,---,0.00,VWS V13.01,2013-01-29 17:07:00,
2013-01-29 11:12:00,70.7,64.9,29.06,South,177,9.6,9.6,82,0.00,,---,0.00,VWS V13.01,2013-01-29 17:12:00,
2013-01-29 11:17:00,70.7,64.9,29.06,SSE,148,10.5,10.5,82,0.00,,---,0.00,VWS V13.01,2013-01-29 17:17:00,
2013-01-29 11:22:00,70.3,64.6,29.06,SSE,167,8.1,8.1,82,0.00,,---,0.00,VWS V13.01,2013-01-29 17:22:00,
2013-01-29 11:27:00,70.3,64.6,29.06,SSE,160,11.0,11.0,82,0.00,,---,0.00,VWS V13.01,2013-01-29 17:27:00,
2013-01-29 11:32:00,70.3,64.6,29.06,SSE,160,11.0,11.0,82,0.00,,---,0.00,VWS V13.01,2013-01-29 17:32:00,
2013-01-29 11:37:00,70.3,64.6,29.06,SE,124,13.2,13.2,82,0.00,,---,0.00,VWS V13.01,2013-01-29 17:37:00,
2013-01-29 11:45:00,70.7,64.9,29.03,SSE,156,12.3,12.3,82,0.00,,---,0.00,VWS V13.01,2013-01-29 17:45:00,
2013-01-29 11:50:00,71.1,65.3,29.03,SSE,163,11.0,11.0,82,0.00,,---,0.00,VWS V13.01,2013-01-29 17:50:00,
2013-01-29 11:55:00,71.4,64.9,29.00,SSE,152,16.3,16.3,80,0.00,,---,0.00,VWS V13.01,2013-01-29 17:55:00,
2013-01-29 12:00:00,71.6,64.8,29.00,SSE,165,3.1,15.4,79,0.00,,---,0.00,VWS V13.01,2013-01-29 18:00:00,
2013-01-29 12:05:00,71.8,64.9,29.00,SSW,207,11.0,11.0,79,0.00,,---,0.00,VWS V13.01,2013-01-29 18:05:00,
2013-01-29 12:10:00,71.8,64.2,29.00,SE,139,11.0,18.3,77,0.00,,---,0.00,VWS V13.01,2013-01-29 18:10:00,
2013-01-29 12:15:00,71.8,64.6,29.00,SSE,153,8.1,12.3,78,0.00,,---,0.00,VWS V13.01,2013-01-29 18:15:00,
2013-01-29 12:20:00,71.8,63.8,29.00,SSW,210,7.6,13.2,76,0.00,,---,0.00,VWS V13.01,2013-01-29 18:20:00,
2013-01-29 12:25:00,71.8,64.2,29.00,South,177,19.2,19.2,77,0.00,,---,0.00,VWS V13.01,2013-01-29 18:25:00,
2013-01-29 12:30:00,71.8,63.8,29.00,South,179,8.3,8.3,76,0.00,,---,0.00,VWS V13.01,2013-01-29 18:30:00,
2013-01-29 12:35:00,71.8,63.8,29.00,SSW,197,10.5,10.5,76,0.00,,---,0.00,VWS V13.01,2013-01-29 18:35:00,
2013-01-29 12:40:00,72.0,64.0,29.00,South,190,8.1,8.1,76,0.00,,---,0.00,VWS V13.01,2013-01-29 18:40:00,
2013-01-29 12:45:00,72.0,63.6,29.00,SSE,166,6.3,10.1,75,0.00,,---,0.00,VWS V13.01,2013-01-29 18:45:00,
2013-01-29 12:50:00,72.1,63.8,29.00,SSE,155,12.8,16.8,75,0.00,,---,0.00,VWS V13.01,2013-01-29 18:50:00,
2013-01-29 12:55:00,72.1,63.8,28.97,SE,135,13.2,13.2,75,0.00,,---,0.00,VWS V13.01,2013-01-29 18:55:00,
2013-01-29 13:00:00,72.1,63.8,28.97,SSE,167,10.5,10.5,75,0.00,,---,0.00,VWS V13.01,2013-01-29 19:00:00,
2013-01-29 13:05:00,72.3,64.0,28.97,SSE,162,6.3,11.0,75,0.00,,---,0.00,VWS V13.01,2013-01-29 19:05:00,
2013-01-29 13:10:00,72.3,63.6,28.94,South,174,15.0,15.0,74,0.00,,---,0.00,VWS V13.01,2013-01-29 19:10:00,
2013-01-29 13:15:00,72.7,63.9,28.94,South,172,7.6,11.9,74,0.00,,---,0.00,VWS V13.01,2013-01-29 19:15:00,
2013-01-29 13:20:00,72.9,63.7,28.94,SSE,164,11.0,12.8,73,0.00,,---,0.00,VWS V13.01,2013-01-29 19:20:00,
2013-01-29 13:25:00,73.0,63.5,28.94,SE,143,11.9,21.9,72,0.00,,---,0.00,VWS V13.01,2013-01-29 19:25:00,
2013-01-29 13:30:00,73.4,63.4,28.94,SSE,151,15.0,15.0,71,0.00,,---,0.00,VWS V13.01,2013-01-29 19:30:00,
2013-01-29 13:35:00,73.8,63.4,28.94,ESE,120,13.2,13.2,70,0.00,,---,0.00,VWS V13.01,2013-01-29 19:35:00,
2013-01-29 13:40:00,74.1,63.3,28.91,ESE,109,8.3,18.8,69,0.00,,---,0.00,VWS V13.01,2013-01-29 19:40:00,
2013-01-29 13:45:00,74.3,63.1,28.91,SSE,163,14.1,20.1,68,0.00,,---,0.00,VWS V13.01,2013-01-29 19:45:00,
2013-01-29 13:50:00,74.3,63.1,28.91,SSE,160,8.3,14.1,68,0.00,,---,0.00,VWS V13.01,2013-01-29 19:50:00,
2013-01-29 13:55:00,74.3,63.1,28.91,SW,223,6.3,7.6,68,0.00,,---,0.00,VWS V13.01,2013-01-29 19:55:00,
2013-01-29 13:57:00,74.3,63.1,28.91,South,169,10.5,13.2,68,0.00,,---,0.00,VWS V13.01,2013-01-29 19:57:00,
2013-01-29 14:02:00,74.3,63.1,28.91,SSE,150,12.3,18.8,68,0.00,,---,0.00,VWS V13.01,2013-01-29 20:02:00,
2013-01-29 14:07:00,74.5,62.8,28.91,SSE,150,8.7,8.7,67,0.00,,---,0.00,VWS V13.01,2013-01-29 20:07:00,
2013-01-29 14:12:00,75.2,63.5,28.91,SSW,208,10.5,12.8,67,0.00,,---,0.00,VWS V13.01,2013-01-29 20:12:00,
2013-01-29 14:17:00,75.7,63.2,28.91,South,180,14.5,14.5,65,0.00,,---,0.00,VWS V13.01,2013-01-29 20:17:00,
2013-01-29 14:22:00,76.1,62.6,28.91,SE,139,10.1,10.1,63,0.00,,---,0.00,VWS V13.01,2013-01-29 20:22:00,
2013-01-29 14:27:00,76.5,62.9,28.91,SE,144,7.6,17.4,63,0.00,,---,0.00,VWS V13.01,2013-01-29 20:27:00,
2013-01-29 14:32:00,76.5,62.9,28.91,SSW,205,12.8,12.8,63,0.00,,---,0.00,VWS V13.01,2013-01-29 20:32:00,
2013-01-29 14:37:00,76.5,62.5,28.88,SSW,207,5.8,5.8,62,0.00,,---,0.00,VWS V13.01,2013-01-29 20:37:00,
2013-01-29 14:42:00,76.3,62.8,28.88,SE,145,13.2,17.9,63,0.00,,---,0.00,VWS V13.01,2013-01-29 20:42:00,
2013-01-29 14:47:00,76.1,62.6,28.88,SE,137,19.7,19.7,63,0.00,,---,0.00,VWS V13.01,2013-01-29 20:47:00,
2013-01-29 14:52:00,76.1,62.6,28.88,South,171,16.8,16.8,63,0.00,,---,0.00,VWS V13.01,2013-01-29 20:52:00,
2013-01-29 14:57:00,75.9,62.9,28.88,South,177,8.1,11.0,64,0.00,,---,0.00,VWS V13.01,2013-01-29 20:57:00,
2013-01-29 15:02:00,76.1,63.0,28.88,SSE,158,12.8,12.8,64,0.00,,---,0.00,VWS V13.01,2013-01-29 21:02:00,
2013-01-29 15:07:00,76.5,62.9,28.88,SSE,166,8.1,17.0,63,0.00,,---,0.00,VWS V13.01,2013-01-29 21:07:00,
2013-01-29 15:12:00,76.5,62.9,28.88,South,169,17.4,17.4,63,0.00,,---,0.00,VWS V13.01,2013-01-29 21:12:00,
2013-01-29 15:17:00,76.5,62.5,28.88,SE,143,9.6,17.4,62,0.00,,---,0.00,VWS V13.01,2013-01-29 21:17:00,
2013-01-29 15:22:00,76.3,61.9,28.88,SSE,163,13.2,16.3,61,0.00,,---,0.00,VWS V13.01,2013-01-29 21:22:00,
2013-01-29 15:27:00,76.3,61.9,28.88,SSE,152,8.3,11.0,61,0.00,,---,0.00,VWS V13.01,2013-01-29 21:27:00,
2013-01-29 15:32:00,76.3,61.4,28.88,South,171,25.5,25.5,60,0.00,,---,0.00,VWS V13.01,2013-01-29 21:32:00,
2013-01-29 15:37:00,76.5,61.6,28.88,SSE,156,11.0,11.0,60,0.00,,---,0.00,VWS V13.01,2013-01-29 21:37:00,
2013-01-29 15:42:00,76.6,61.2,28.88,SSE,162,8.1,8.1,59,0.00,,---,0.00,VWS V13.01,2013-01-29 21:42:00,
2013-01-29 15:47:00,77.0,61.6,28.88,SSE,158,12.8,12.8,59,0.00,,---,0.00,VWS V13.01,2013-01-29 21:47:00,
2013-01-29 15:52:00,77.2,61.3,28.88,SSE,155,10.1,12.3,58,0.00,,---,0.00,VWS V13.01,2013-01-29 21:52:00,
2013-01-29 15:57:00,77.2,61.3,28.88,SSE,161,8.7,8.7,58,0.00,,---,0.00,VWS V13.01,2013-01-29 21:57:00,
2013-01-29 16:02:00,77.0,60.1,28.88,South,179,18.3,18.3,56,0.00,,---,0.00,VWS V13.01,2013-01-29 22:02:00,
2013-01-29 16:07:00,76.8,60.0,28.91,SW,219,11.0,11.0,56,0.00,,---,0.00,VWS V13.01,2013-01-29 22:07:00,
2013-01-29 16:12:00,74.3,49.8,28.91,West,270,11.4,11.4,42,0.00,,---,0.00,VWS V13.01,2013-01-29 22:12:00,
2013-01-29 16:17:00,70.3,49.2,28.91,WNW,293,10.5,23.3,47,0.00,,---,0.00,VWS V13.01,2013-01-29 22:17:00,
2013-01-29 16:22:00,67.3,51.5,28.94,West,280,8.1,8.3,57,0.00,,---,0.00,VWS V13.01,2013-01-29 22:22:00,
2013-01-29 16:27:00,64.9,53.7,28.94,WNW,284,10.5,15.9,67,0.04,,---,0.04,VWS V13.01,2013-01-29 22:27:00,
2013-01-29 16:32:00,63.0,54.5,28.94,West,259,9.6,9.6,74,0.12,,---,0.12,VWS V13.01,2013-01-29 22:32:00,
2013-01-29 16:37:00,61.7,55.1,28.94,West,263,10.1,12.3,79,0.12,,---,0.12,VWS V13.01,2013-01-29 22:37:00,
2013-01-29 16:42:00,61.2,55.3,28.94,West,281,8.7,8.7,81,0.12,,---,0.12,VWS V13.01,2013-01-29 22:42:00,
2013-01-29 16:47:00,60.8,55.6,28.94,WSW,258,7.2,7.6,83,0.16,,---,0.16,VWS V13.01,2013-01-29 22:47:00,
2013-01-29 16:52:00,60.8,55.9,28.97,WSW,253,3.6,7.2,84,0.16,,---,0.16,VWS V13.01,2013-01-29 22:52:00,
2013-01-29 16:57:00,61.0,56.1,28.97,West,260,3.1,5.8,84,0.16,,---,0.16,VWS V13.01,2013-01-29 22:57:00,
2013-01-29 17:02:00,61.0,56.1,28.97,WSW,251,6.3,6.3,84,0.16,,---,0.16,VWS V13.01,2013-01-29 23:02:00,
2013-01-29 17:07:00,61.2,56.6,28.97,West,278,6.3,6.3,85,0.16,,---,0.16,VWS V13.01,2013-01-29 23:07:00,
2013-01-29 17:12:00,61.0,56.5,28.97,WNW,295,7.6,8.3,85,0.16,,---,0.16,VWS V13.01,2013-01-29 23:12:00,
2013-01-29 17:17:00,61.0,56.5,28.97,WSW,258,0.0,0.0,85,0.16,,---,0.16,VWS V13.01,2013-01-29 23:17:00,
2013-01-29 17:22:00,61.0,56.5,28.97,WSW,244,0.0,2.2,85,0.16,,---,0.16,VWS V13.01,2013-01-29 23:22:00,
2013-01-29 17:27:00,61.0,55.8,28.97,West,271,4.9,4.9,83,0.16,,---,0.16,VWS V13.01,2013-01-29 23:27:00,
2013-01-29 17:32:00,61.0,55.5,28.97,WNW,283,4.0,4.0,82,0.08,,---,0.16,VWS V13.01,2013-01-29 23:32:00,
2013-01-29 17:37:00,61.0,55.5,28.97,WSW,252,4.0,4.9,82,0.04,,---,0.16,VWS V13.01,2013-01-29 23:37:00,
2013-01-29 17:42:00,61.2,55.6,28.97,West,272,4.0,4.9,82,0.04,,---,0.16,VWS V13.01,2013-01-29 23:42:00,
2013-01-29 17:47:00,61.2,55.6,28.97,WNW,291,7.6,7.6,82,0.00,,---,0.16,VWS V13.01,2013-01-29 23:47:00,
2013-01-29 17:52:00,61.0,55.5,29.00,WNW,297,6.3,6.3,82,0.00,,---,0.16,VWS V13.01,2013-01-29 23:52:00,
2013-01-29 17:57:00,60.8,55.3,29.00,WSW,249,5.8,5.8,82,0.00,,---,0.16,VWS V13.01,2013-01-29 23:57:00,
2013-01-29 18:02:00,60.6,55.1,29.00,WNW,287,6.3,7.6,82,0.00,,---,0.16,VWS V13.01,2013-01-30 00:02:00,
2013-01-29 18:07:00,60.6,55.1,29.03,WNW,287,5.8,6.3,82,0.00,,---,0.16,VWS V13.01,2013-01-30 00:07:00,
2013-01-29 18:12:00,60.4,54.9,29.03,West,271,8.7,14.5,82,0.00,,---,0.16,VWS V13.01,2013-01-30 00:12:00,
2013-01-29 18:17:00,60.4,54.6,29.03,WSW,237,6.3,10.5,81,0.00,,---,0.16,VWS V13.01,2013-01-30 00:17:00,
2013-01-29 18:22:00,60.4,54.6,29.03,West,260,4.0,5.8,81,0.00,,---,0.16,VWS V13.01,2013-01-30 00:22:00,
2013-01-29 18:27:00,60.6,55.1,29.03,West,260,5.4,8.7,82,0.00,,---,0.16,VWS V13.01,2013-01-30 00:27:00,
2013-01-29 18:32:00,60.6,55.1,29.03,West,276,7.6,8.7,82,0.00,,---,0.16,VWS V13.01,2013-01-30 00:32:00,
2013-01-29 18:37:00,60.1,49.1,29.06,West,273,10.5,10.5,67,0.00,,---,0.16,VWS V13.01,2013-01-30 00:37:00,
2013-01-29 18:42:00,59.5,44.3,29.06,WNW,288,10.5,11.0,57,0.00,,---,0.16,VWS V13.01,2013-01-30 00:42:00,
2013-01-29 18:47:00,59.0,43.3,29.06,WNW,286,5.8,14.5,56,0.00,,---,0.16,VWS V13.01,2013-01-30 00:47:00,
2013-01-29 18:52:00,58.8,44.1,29.06,West,273,8.7,9.6,58,0.00,,---,0.16,VWS V13.01,2013-01-30 00:52:00,
2013-01-29 18:57:00,58.5,43.3,29.06,WNW,299,8.1,15.0,57,0.00,,---,0.16,VWS V13.01,2013-01-30 00:57:00,
2013-01-29 19:02:00,58.3,43.1,29.06,WNW,286,14.5,14.5,57,0.00,,---,0.16,VWS V13.01,2013-01-30 01:02:00,
2013-01-29 19:07:00,58.1,42.5,29.03,WNW,299,8.3,10.5,56,0.00,,---,0.16,VWS V13.01,2013-01-30 01:07:00,
2013-01-29 19:12:00,58.1,42.5,29.03,WNW,293,7.6,8.7,56,0.00,,---,0.16,VWS V13.01,2013-01-30 01:12:00,
2013-01-29 19:17:00,58.1,42.5,29.03,West,274,5.4,8.1,56,0.00,,---,0.16,VWS V13.01,2013-01-30 01:17:00,
2013-01-29 19:22:00,58.1,42.5,29.03,NW,309,5.4,7.6,56,0.00,,---,0.16,VWS V13.01,2013-01-30 01:22:00,
2013-01-29 19:27:00,58.1,43.4,29.03,West,275,3.1,4.0,58,0.00,,---,0.16,VWS V13.01,2013-01-30 01:27:00,
2013-01-29 19:32:00,58.1,43.0,29.03,NW,322,4.0,5.4,57,0.00,,---,0.16,VWS V13.01,2013-01-30 01:32:00,
2013-01-29 19:37:00,58.1,43.4,29.03,WNW,293,0.0,0.0,58,0.00,,---,0.16,VWS V13.01,2013-01-30 01:37:00,
2013-01-29 19:42:00,57.9,43.2,29.03,WSW,243,3.6,3.6,58,0.00,,---,0.16,VWS V13.01,2013-01-30 01:42:00,
2013-01-29 19:47:00,58.1,43.9,29.03,WSW,243,0.0,0.0,59,0.00,,---,0.16,VWS V13.01,2013-01-30 01:47:00,
2013-01-29 19:52:00,58.1,44.7,29.03,WSW,244,0.0,0.0,61,0.00,,---,0.16,VWS V13.01,2013-01-30 01:52:00,
2013-01-29 19:57:00,58.1,45.2,29.03,WSW,243,0.0,0.0,62,0.00,,---,0.16,VWS V13.01,2013-01-30 01:57:00,
2013-01-29 20:02:00,57.9,45.4,29.03,WSW,243,3.1,3.1,63,0.00,,---,0.16,VWS V13.01,2013-01-30 02:02:00,
2013-01-29 20:07:00,57.9,46.2,29.03,WSW,243,0.0,0.0,65,0.00,,---,0.16,VWS V13.01,2013-01-30 02:07:00,
2013-01-29 20:11:00,57.9,45.8,29.03,WSW,243,0.0,0.0,64,0.00,,---,0.16,VWS V13.01,2013-01-30 02:11:00,
2013-01-29 20:16:00,57.7,46.5,29.03,WSW,243,0.0,0.0,66,0.00,,---,0.16,VWS V13.01,2013-01-30 02:16:00,
2013-01-29 20:21:00,57.6,47.1,29.03,WSW,243,0.0,3.6,68,0.00,,---,0.16,VWS V13.01,2013-01-30 02:21:00,
2013-01-29 20:26:00,57.6,46.3,29.03,WSW,243,2.7,4.0,66,0.00,,---,0.16,VWS V13.01,2013-01-30 02:26:00,
2013-01-29 20:31:00,57.6,46.3,29.03,WSW,242,0.0,0.0,66,0.00,,---,0.16,VWS V13.01,2013-01-30 02:31:00,
2013-01-29 20:36:00,57.4,46.5,29.03,WSW,244,0.0,0.0,67,0.00,,---,0.16,VWS V13.01,2013-01-30 02:36:00,
2013-01-29 20:41:00,57.2,46.4,29.03,WSW,243,0.0,0.0,67,0.00,,---,0.16,VWS V13.01,2013-01-30 02:41:00,